EHI
0 0 0 0 0 0 0 0 0 0 0 0 0 0 0 0 0 0 1 12 29 34 28 28 35 35 27 24 21 16 10 5 1 0 0 0 0 0 0 0 0 0 0 0 0 0 0 0 0
0 0 0 0 0 0 0 0 0 0 0 0 0 0 0 0 0 0 3 15 29 31 24 25 33 34 28 23 19 15 10 5 1 0 0 0 0 0 0 0 0 0 0 0 0 0 0 0 0
0 0 0 0 0 0 0 0 0 0 0 0 0 0 0 1 1 2 5 15 26 27 23 27 35 35 29 22 16 11 7 3 1 0 0 0 0 0 0 0 0 0 0 0 0 0 0 0 0
0 0 0 0 0 0 0 0 0 0 0 0 0 0 1 3 4 3 4 12 22 25 26 33 39 38 31 22 13 8 4 2 1 0 0 0 0 0 0 0 0 0 0 0 0 0 0 0 0
0 0 0 0 0 0 0 0 0 0 0 0 0 0 1 3 4 3 3 9 20 27 31 35 39 38 32 22 12 7 4 2 1 0 0 0 0 0 0 0 0 0 0 0 0 0 0 0 0
0 0 0 0 0 0 0 0 0 0 0 0 0 0 1 3 4 3 4 10 20 29 32 33 36 35 30 21 13 7 4 3 2 1 0 0 0 0 0 0 0 0 0 0 0 0 0 0 0
0 0 0 0 0 0 0 0 0 0 0 0 0 0 0 3 6 7 8 15 24 31 32 30 29 27 22 16 10 5 3 3 2 1 0 0 0 0 0 0 0 0 0 0 0 0 0 0 0
0 0 0 0 0 0 0 0 0 0 0 0 0 1 1 4 8 9 13 21 28 32 31 25 20 17 13 10 6 2 1 1 1 1 0 0 0 0 0 0 0 0 0 0 0 0 0 0 0
0 0 0 0 0 0 0 0 0 0 0 0 1 2 4 5 7 9 14 21 28 30 27 21 16 12 10 6 3 1 0 0 0 0 0 0 0 0 0 0 0 0 0 0 0 0 0 0 0
0 0 0 0 0 0 0 0 0 0 0 1 2 3 5 5 6 7 9 13 21 24 22 19 16 13 11 8 6 4 2 0 0 0 0 0 0 0 0 0 0 0 0 0 0 0 0 0 0
0 0 0 0 0 0 0 0 0 0 0 0 1 2 3 4 5 6 5 8 13 17 17 17 17 15 13 12 10 7 4 2 0 0 0 0 0 0 0 0 0 0 0 0 0 0 0 0 0
0 0 0 0 0 0 0 0 0 0 0 0 0 1 1 3 4 5 4 6 9 11 12 14 16 17 17 16 13 9 6 3 1 0 0 0 0 0 0 0 0 0 0 0 0 0 0 0 0
0 0 0 0 0 0 0 0 0 0 0 0 0 1 1 1 2 3 3 4 6 9 10 11 14 16 18 18 14 9 6 4 1 0 0 0 0 0 0 0 0 0 0 0 0 0 0 0 0
0 0 0 0 0 0 0 0 0 0 0 0 1 1 0 0 0 1 2 3 5 8 9 9 10 12 15 17 16 12 8 5 3 1 0 0 0 0 0 0 0 0 0 0 0 0 0 0 0
0 0 0 0 0 0 0 0 0 0 0 0 0 0 0 0 0 0 1 2 4 7 8 8 8 9 10 14 15 13 10 8 5 2 1 0 0 0 0 0 0 0 0 0 0 0 0 0 0
0 0 0 0 0 0 0 0 0 0 0 0 0 0 0 0 0 0 0 2 4 6 7 7 7 7 8 11 13 12 10 8 5 3 1 1 1 0 0 0 0 0 0 0 0 0 0 0 0
0 0 0 0 0 0 0 0 0 0 0 0 0 0 0 1 1 1 1 3 4 5 6 6 6 6 7 8 10 10 8 5 4 2 1 0 0 0 0 0 0 0 0 0 0 0 0 0 0
0 0 0 0 0 0 0 0 0 0 0 0 0 0 0 1 2 2 2 3 4 4 4 5 5 5 5 6 7 8 6 4 3 2 1 0 0 0 0 0 0 0 0 0 0 0 0 0 0
0 0 0 0 0 0 0 0 0 0 0 0 0 0 0 1 1 1 1 2 2 2 3 3 3 3 3 4 5 5 5 4 3 3 2 1 0 0 0 0 0 0 0 0 0 0 0 0 0
0 0 0 0 0 0 0 0 0 0 0 0 0 0 0 0 0 0 0 0 1 1 1 1 1 1 2 2 2 2 3 3 3 3 3 1 0 0 0 0 0 0 0 0 0 0 0 0 0
0 0 0 0 0 0 0 0 0 0 0 0 0 0 0 0 0 0 0 0 0 0 0 0 0 0 1 1 1 2 3 3 3 3 3 2 1 0 0 0 0 0 0 0 0 0 0 0 0
0 0 0 0 0 0 0 0 0 0 0 0 0 0 0 0 0 0 0 0 0 0 0 0 0 0 0 0 1 3 3 3 3 3 3 3 2 1 0 0 0 0 0 0 0 0 0 0 0
0 0 0 0 0 0 0 0 0 0 0 0 0 0 0 0 0 0 0 0 0 0 0 0 0 0 0 0 1 1 1 1 2 3 3 3 2 1 0 0 0 0 0 0 0 0 0 0 0
0 0 0 0 0 0 0 0 0 0 0 0 0 0 0 0 0 0 0 0 0 0 0 0 0 0 0 0 0 0 0 0 1 1 2 2 1 1 0 0 0 0 0 0 0 0 0 0 0
0 0 0 0 0 0 0 0 0 0 0 0 0 0 0 0 0 0 0 0 0 0 0 0 0 0 0 0 0 0 0 0 0 0 1 1 0 0 0 0 0 0 0 0 0 0 0 0 0
0 0 0 0 0 0 0 0 0 0 0 0 0 0 0 0 0 0 0 0 0 0 0 0 0 0 0 0 0 0 0 0 0 0 0 0 0 0 0 0 0 0 0 0 0 0 0 0 0
0 0 0 0 0 0 0 0 0 0 0 0 0 0 0 0 0 0 0 0 0 0 0 0 0 0 0 0 0 0 0 0 0 0 0 0 0 0 0 0 0 0 0 0 0 0 0 0 0
0 0 0 0 0 0 0 0 0 0 0 0 0 0 0 0 0 0 0 0 0 0 0 0 0 0 0 0 0 0 0 0 0 0 0 0 0 0 0 0 0 0 0 0 0 0 0 0 0
0 0 0 0 0 0 0 0 0 0 0 0 0 0 0 0 0 0 0 0 0 0 0 0 0 0 0 0 0 0 0 0 0 0 0 0 0 0 0 0 0 0 0 0 0 0 0 0 0
0 0 0 0 0 0 0 0 0 0 0 0 0 0 0 0 0 0 0 0 0 0 0 0 0 0 0 0 0 0 0 0 0 0 0 0 0 0 0 0 0 0 0 0 0 0 0 0 0
Wind_Speed
8 9 6 2 3 5 9 7 5 2 1 1 3 2 2 2 3 6 4 8 14 15 15 15 15 14 14 14 13 12 11 11 11 11 11 11 12 12 12 12 12 12 13 13 13 14 14 14 14
8 5 3 3 4 7 7 9 8 3 2 3 2 2 2 2 7 8 5 9 14 14 13 13 15 14 14 14 13 12 11 11 11 11 11 11 11 11 11 11 12 12 12 13 12 13 13 13 13
9 5 3 4 6 8 5 2 4 2 4 3 1 0 1 2 6 6 7 10 13 13 12 13 15 14 14 13 13 12 11 11 10 11 11 11 11 11 11 11 12 12 12 12 12 12 12 12 12
4 3 4 6 11 9 7 2 1 3 3 3 2 2 2 4 4 7 10 10 12 12 12 13 15 14 13 13 12 12 11 11 11 11 11 11 11 11 11 11 11 11 12 12 12 12 12 11 10
3 3 5 8 12 10 8 3 1 2 3 4 4 2 3 4 7 9 9 9 11 11 11 13 14 14 13 13 12 11 11 11 11 11 11 11 11 11 11 11 11 11 11 11 12 11 11 10 9
3 4 6 10 11 10 8 5 2 3 3 3 4 3 2 5 7 7 8 8 10 11 11 12 13 13 13 13 12 11 11 11 11 10 10 10 10 11 11 11 11 11 11 11 11 11 10 10 9
4 4 8 9 9 8 6 4 4 3 4 4 3 2 3 5 6 6 7 7 9 10 10 9 9 10 12 12 11 11 10 10 10 10 10 9 10 10 10 9 10 10 10 10 11 10 10 9 8
4 4 8 10 10 8 4 2 2 2 2 1 2 2 3 5 6 6 6 6 8 9 9 9 8 8 8 8 11 11 10 10 9 9 9 9 9 9 9 8 9 9 9 10 10 10 10 9 7
4 6 8 8 7 5 1 1 1 0 2 2 0 2 6 9 7 6 6 5 6 7 8 8 8 7 7 7 9 9 9 9 9 8 9 8 5 6 6 8 8 8 9 9 10 10 9 8 5
5 7 9 6 5 4 2 1 1 1 3 3 1 4 8 7 6 6 6 5 6 6 6 6 8 7 7 7 7 5 6 6 5 5 6 4 4 4 6 8 8 8 8 8 9 9 8 5 2
7 8 8 8 6 5 4 2 1 3 4 3 3 5 7 6 5 6 6 6 6 6 5 5 6 7 6 5 5 4 3 4 4 5 5 3 3 4 4 3 4 5 6 4 5 5 3 3 2
9 10 9 8 5 4 4 3 3 4 3 2 2 4 6 5 5 5 4 4 4 5 5 5 4 5 6 5 4 4 3 3 3 4 5 4 3 3 4 3 3 3 2 3 3 2 3 3 3
12 11 10 7 5 4 5 5 4 5 3 2 1 3 5 5 4 3 3 3 3 3 4 4 4 4 5 5 4 4 4 4 3 4 4 4 3 4 4 3 3 2 2 3 3 2 3 3 3
8 8 8 7 5 5 6 6 5 5 3 1 2 2 3 4 3 2 2 2 2 2 3 3 4 3 4 3 3 3 4 3 3 3 4 4 3 3 3 3 3 2 2 2 2 3 3 3 3
8 9 9 8 7 5 3 7 8 5 3 2 2 2 2 3 2 2 2 1 2 2 2 3 4 4 4 4 3 3 3 3 3 3 4 4 4 4 3 3 3 2 2 3 2 3 3 3 3
7 8 9 7 7 6 6 8 4 3 4 4 2 2 2 2 1 1 1 1 1 1 1 2 3 3 3 3 3 3 3 4 3 3 3 4 4 4 3 3 3 3 2 2 2 3 3 3 3
6 7 9 7 7 6 6 5 1 1 3 3 2 2 2 2 2 2 2 2 1 1 1 1 2 3 2 2 3 3 3 3 3 3 3 3 4 4 3 3 3 3 2 2 2 2 3 3 3
5 6 7 7 4 4 6 5 1 1 0 2 1 1 2 2 2 2 2 2 2 1 1 1 1 2 2 2 2 2 2 2 3 3 3 4 4 4 4 3 3 4 3 2 2 3 3 3 3
7 8 9 8 4 3 5 5 2 0 0 2 2 2 3 3 3 4 4 4 3 2 2 1 1 1 2 2 2 2 3 2 2 2 3 4 4 4 4 3 4 4 3 3 3 3 4 3 3
8 9 9 6 3 3 4 4 2 1 2 3 3 3 3 3 4 4 4 4 4 4 3 2 1 1 2 2 2 2 3 3 3 2 3 4 4 4 4 4 4 4 4 4 4 4 3 2 3
7 6 6 5 5 4 5 4 3 2 3 4 5 4 4 3 3 3 3 3 3 3 3 3 2 1 1 1 1 1 1 2 2 2 2 3 4 4 4 4 4 4 4 4 4 4 4 3 2
6 5 7 6 4 4 4 3 3 3 4 4 5 5 5 5 4 3 4 4 4 3 3 3 3 2 1 1 2 3 3 2 3 3 3 3 3 4 4 4 4 4 3 4 4 4 3 4 3
6 8 7 8 6 5 5 4 2 2 2 2 4 5 5 6 5 4 4 4 4 4 3 2 3 3 2 0 1 2 2 2 2 3 4 4 3 4 4 4 4 4 3 4 4 4 4 3 4
6 6 6 6 3 6 7 5 1 2 2 3 5 5 5 6 6 5 5 5 5 5 4 3 3 3 3 1 1 1 2 2 3 3 4 4 3 3 4 4 4 4 3 4 4 4 5 3 3
5 3 1 1 4 5 4 3 2 4 6 5 5 5 5 5 5 6 6 6 6 5 5 4 4 3 3 3 1 1 2 2 3 3 4 4 3 2 4 3 3 3 3 4 4 4 4 4 4
5 2 1 2 3 3 0 2 3 5 7 8 7 7 7 7 5 5 5 5 5 5 5 4 4 4 4 3 2 1 1 2 1 2 2 3 3 3 4 4 4 4 4 4 4 3 4 4 4
5 3 3 3 4 3 1 3 3 5 8 10 10 10 8 8 8 6 5 5 5 5 5 5 5 5 4 4 3 2 1 1 1 1 1 2 2 3 4 4 4 4 4 5 5 4 4 4 4
3 4 4 2 2 3 1 2 2 6 8 9 10 10 9 8 8 8 6 5 5 5 5 5 5 5 5 5 4 3 2 1 1 1 1 1 2 3 4 4 4 4 4 5 5 4 4 4 4
6 5 5 4 3 2 2 2 4 6 6 8 9 9 9 9 8 8 7 7 6 5 5 5 5 5 5 5 5 5 3 2 1 1 1 1 1 2 4 5 5 4 4 4 4 4 5 5 4
4 5 5 3 4 3 1 1 5 7 7 7 9 9 9 9 8 8 8 8 7 7 6 6 6 5 5 5 5 4 4 2 1 1 0 1 1 2 2 4 4 4 4 4 5 5 5 6 6
Wind_Direction
269 253 246 247 234 231 236 239 248 213 225 14 13 354 355 343 27 102 146 124 120 128 136 142 139 137 134 133 131 129 128 126 125 123 121 118 117 116 113 110 109 107 105 103 99 96 94 93 92
269 247 245 236 231 229 231 221 233 217 108 64 30 351 352 27 79 108 124 119 126 130 135 140 140 138 135 134 133 132 132 129 127 126 124 122 118 116 115 113 111 110 107 104 100 97 95 96 94
266 248 238 226 230 231 237 210 184 132 100 113 146 232 312 53 91 112 122 127 127 129 133 135 138 137 136 136 136 135 134 131 128 127 126 125 121 118 114 112 111 110 107 106 104 101 100 100 97
242 225 244 240 240 241 254 252 104 143 139 149 168 162 114 53 58 101 119 129 130 130 132 135 137 136 135 134 135 136 135 132 129 127 128 126 124 120 116 112 111 112 112 111 109 106 104 102 97
242 235 230 234 241 247 260 261 140 172 173 173 188 199 113 82 87 108 127 136 134 131 131 138 138 138 138 137 136 134 136 135 133 131 129 127 126 123 119 115 113 115 116 115 113 110 107 103 99
232 232 232 233 238 236 236 231 227 218 208 192 185 218 117 109 113 126 133 138 132 130 131 139 139 139 139 138 136 135 132 134 135 134 131 128 125 123 123 121 119 117 119 119 116 114 110 106 100
241 241 242 247 251 246 232 199 205 217 225 199 180 204 135 123 122 129 130 132 129 128 132 139 144 141 138 136 136 134 131 129 131 133 130 127 123 123 123 123 123 123 123 122 119 115 113 108 101
254 266 248 244 246 251 241 200 168 224 248 221 188 201 140 128 120 125 125 125 128 129 136 144 148 146 144 139 137 133 130 129 127 126 127 128 126 126 125 123 122 123 125 124 120 118 114 107 102
253 245 240 238 247 255 219 212 151 153 261 266 300 53 99 118 123 125 122 128 132 136 141 147 150 149 146 145 141 135 133 133 132 132 136 135 134 132 129 123 120 120 123 125 127 126 120 111 105
218 234 238 254 279 295 274 236 178 216 222 232 148 90 101 114 127 134 138 145 146 147 149 152 153 150 149 151 144 146 146 147 147 147 147 144 136 129 125 119 122 124 126 130 134 135 133 127 126
215 236 252 270 295 312 297 272 250 247 246 221 168 134 126 128 140 153 160 161 158 152 149 150 153 152 150 146 148 151 150 153 155 149 144 133 127 126 119 123 127 132 139 137 141 140 153 145 132
241 249 259 271 298 307 289 269 261 255 265 14 62 116 126 143 158 163 163 164 155 151 153 147 153 151 152 149 153 151 149 153 153 153 151 143 135 131 134 135 148 150 148 141 148 158 153 137 135
242 252 259 267 281 284 290 270 260 266 276 316 62 108 137 150 161 163 155 150 145 149 154 150 146 149 150 150 156 151 150 152 153 150 155 147 141 142 142 141 145 149 146 149 158 151 141 129 126
254 264 264 263 261 259 262 270 258 260 251 205 147 137 147 155 160 149 139 143 157 169 165 156 151 152 149 147 150 148 151 152 146 146 155 148 139 140 142 136 137 141 141 148 148 141 127 116 110
260 267 264 250 241 234 243 261 246 246 224 190 158 143 141 144 147 151 151 149 161 169 167 168 160 152 151 149 154 146 150 148 142 146 149 138 132 138 137 134 135 139 132 135 128 119 112 110 103
248 246 247 236 223 221 209 244 244 222 198 196 175 147 137 134 122 122 117 107 133 132 157 181 174 160 159 156 153 148 149 144 143 140 141 140 136 136 133 135 140 139 126 120 121 123 113 109 108
225 235 241 247 216 209 210 245 245 245 189 191 171 153 136 102 56 35 72 87 83 121 157 167 161 157 157 148 143 142 140 141 142 138 138 144 142 141 135 135 139 133 128 133 141 129 125 123 119
242 252 250 251 223 216 222 241 256 300 168 172 156 90 87 66 46 29 39 55 79 70 71 123 139 147 136 127 126 129 131 134 133 138 149 150 148 149 140 142 145 136 134 141 140 137 128 129 129
267 265 269 273 282 257 243 243 248 236 82 78 83 57 58 40 37 38 35 32 28 45 38 66 107 132 131 134 146 155 160 153 143 150 159 156 152 153 146 151 148 145 148 154 150 139 132 133 129
268 268 272 281 293 284 262 248 249 68 86 82 80 52 43 27 32 35 29 28 24 26 19 13 56 151 156 171 177 180 163 162 158 160 159 159 157 157 159 153 154 150 147 151 154 143 136 148 153
271 270 277 289 310 270 257 253 205 117 77 58 53 54 44 34 32 27 24 20 18 24 16 360 358 9 153 154 139 118 103 118 141 160 164 169 168 164 160 158 152 157 156 164 165 156 150 157 173
285 303 293 283 271 254 237 245 199 139 87 49 34 31 24 14 20 22 18 11 7 6 11 4 359 1 40 106 150 158 165 171 186 176 172 176 178 166 156 156 154 160 161 163 168 162 157 155 169
300 305 284 263 253 258 243 237 200 119 77 32 26 28 22 14 15 16 11 2 2 3 11 6 355 3 3 351 165 175 182 175 162 167 170 176 179 171 161 161 161 164 164 163 163 157 163 166 170
305 296 274 250 234 240 229 213 176 38 21 32 27 24 19 15 9 9 11 7 5 5 9 9 5 357 353 333 208 171 183 181 167 175 180 179 175 173 169 166 167 164 163 164 165 164 170 174 167
333 338 323 246 217 231 199 163 89 37 29 39 25 16 16 17 12 8 9 5 359 358 4 5 3 355 345 339 309 219 189 190 191 189 185 177 172 171 179 171 170 167 166 165 162 166 173 174 170
318 329 314 262 250 290 267 130 99 52 38 36 29 21 20 14 12 13 8 359 354 353 358 2 358 347 339 333 317 278 214 192 199 204 191 182 181 179 178 180 177 174 171 171 167 171 176 173 173
339 346 297 284 286 271 186 114 109 38 29 22 17 16 13 8 6 7 7 1 356 353 353 352 352 351 346 336 323 300 257 216 205 198 183 173 170 178 178 182 182 178 174 175 173 178 180 176 177
359 340 341 319 291 276 223 130 28 8 10 12 11 8 3 4 5 3 1 1 358 354 352 357 360 351 346 348 341 329 302 266 218 184 181 178 173 177 178 182 179 179 180 178 176 175 177 175 179
6 8 349 308 287 289 289 49 32 31 25 12 5 0 360 1 2 360 357 356 358 358 360 0 358 356 352 347 345 342 333 327 316 183 173 183 178 178 183 181 177 180 186 184 180 180 179 179 178
31 12 4 341 323 319 301 65 38 33 28 18 3 358 360 359 359 358 359 -0 360 358 358 359 355 355 352 347 346 340 338 338 343 339 220 185 191 182 181 178 176 181 187 185 183 185 184 182 184